Chino, CA

11:27 AM PDT on April 20, 2018 (GMT -0700)
Chino

Weather History for KCNO - October, 2013

Change the Weather History Date:

Wednesday, October 16, 2013

  Actual Average Record
Temperature  
Mean Temperature 70 °F -  
Max Temperature 86 °F 80 °F 100 °F (2017)
Min Temperature 53 °F 48 °F 41 °F (1996)
Cooling Degree Days 4    
Growing Degree Days 20 (Base 50)    
Moisture  
Dew Point 25 °F    
Average Humidity 21    
Maximum Humidity 50    
Minimum Humidity 7    
Precipitation  
Precipitation 0.00 in - - ()
Sea Level Pressure  
Sea Level Pressure 30.02 in    
Wind  
Wind Speed 7 mph (SE)    
Max Wind Speed 17 mph    
Max Gust Speed 24 mph    
Visibility 10 miles    
Events      
Averages and records for this station are not official NWS values.
T = Trace of Precipitation, MM = Missing Value Source: NWS Daily Summary

Daily Weather History Graph

Daily Weather History Graph

Search for Another Location

Airport or City:

Astronomy

Oct. 16, 2013 Rise Set
Actual Time 6:56 AM PDT 6:14 PM PDT
Civil Twilight 6:31 AM PDT 6:40 PM PDT
Nautical Twilight 6:02 AM PDT 7:09 PM PDT
Astronomical Twilight 5:33 AM PDT 7:38 PM PDT
Moon 4:53 PM PDT (10/16) 4:35 AM PDT (10/16)
Length of Visible Light 12h 08m
Length of Day
11h 18m
Waxing Gibbous, 94% of the Moon is Illuminated
Oct 16
Waxing Gibbous
Oct 18
Full
Oct 26
Last Quarter
Nov 3
New
Nov 9
First Quarter

Hourly Weather History & Observations

Time (PDT) Temp. Dew Point Humidity Pressure Visibility Wind Dir Wind Speed Gust Speed Precip Events Conditions
12:53 AM 68.0 °F 23.0 °F 18% 29.99 in 10.0 mi East 9.2 mph - N/A   Clear
1:53 AM 63.0 °F 28.0 °F 27% 30.00 in 10.0 mi SSE 3.5 mph - N/A   Clear
2:53 AM 63.0 °F 28.0 °F 27% 30.00 in 10.0 mi SSE 10.4 mph - N/A   Clear
3:53 AM 57.9 °F 30.9 °F 36% 30.00 in 10.0 mi SE 6.9 mph - N/A   Clear
4:53 AM 70.0 °F 21.9 °F 16% 29.99 in 10.0 mi East 12.7 mph 24.2 mph N/A   Clear
5:53 AM 70.0 °F 23.0 °F 17% 30.01 in 10.0 mi East 17.3 mph - N/A   Clear
6:53 AM 69.1 °F 21.0 °F 16% 30.02 in 9.0 mi East 12.7 mph - N/A   Clear
7:53 AM 60.1 °F 35.1 °F 39% 30.05 in 10.0 mi Calm Calm - N/A   Clear
8:53 AM 70.0 °F 33.1 °F 26% 30.07 in 10.0 mi Calm Calm - N/A   Clear
9:53 AM 77.0 °F 24.1 °F 14% 30.08 in 10.0 mi SE 3.5 mph - N/A   Clear
10:53 AM 80.1 °F 27.0 °F 14% 30.06 in 10.0 mi NW 4.6 mph - N/A   Clear
11:53 AM 82.9 °F 21.9 °F 11% 30.04 in 10.0 mi ESE 11.5 mph 23.0 mph N/A   Clear
12:53 PM 84.9 °F 19.0 °F 9% 30.03 in 10.0 mi East 11.5 mph - N/A   Clear
1:53 PM 84.9 °F 18.0 °F 8% 30.01 in 10.0 mi Variable 6.9 mph - N/A   Clear
2:53 PM 84.9 °F 14.0 °F 7% 29.99 in 10.0 mi SW 6.9 mph - N/A   Clear
3:53 PM 84.9 °F 15.1 °F 7% 29.98 in 10.0 mi SE 4.6 mph - N/A   Clear
4:53 PM 84.9 °F 14.0 °F 7% 29.97 in 10.0 mi South 3.5 mph - N/A   Clear
5:53 PM 80.1 °F 24.1 °F 13% 29.98 in 10.0 mi SW 9.2 mph - N/A   Clear
6:53 PM 69.1 °F 28.9 °F 22% 30.00 in 10.0 mi West 5.8 mph - N/A   Clear
7:53 PM 64.0 °F 33.1 °F 31% 30.02 in 10.0 mi WSW 4.6 mph - N/A   Clear
8:53 PM 68.0 °F 28.0 °F 22% 30.03 in 10.0 mi Calm Calm - N/A   Clear
9:53 PM 64.0 °F 28.0 °F 26% 30.04 in 10.0 mi Calm Calm - N/A   Clear
10:53 PM 55.0 °F 36.0 °F 49% 30.03 in 6.0 mi Calm Calm - N/A   Haze
11:53 PM 53.1 °F 35.1 °F 50% 30.03 in 8.0 mi Calm Calm - N/A   Clear